User: anonymous   Login
Location: Unspecified
(0.0000°N, 0.0000°E)
Time: 22:53:42
(UTC+00:00)
Language:

UKube-1 - Orbit

View from above orbital plane
View from above orbital plane
View from above satellite
View from above satellite

Ground track
Ground track

The orbit data is extracted from the following two-line orbital elements,

1 40074U 14037F   18018.71044473  .00000230  00000-0  34935-4 0  9991
2 40074  98.3672 148.6333 0006104  81.8352 278.3553 14.83700655191135
Epoch (UTC): 18 January 2018 17:03:02
Eccentricity: 0.0006104
inclination: 98.3672°
perigee height: 613 km
apogee height: 622 km
right ascension of ascending node: 148.6333°
argument of perigee: 81.8352°
revolutions per day: 14.83700655
mean anomaly at epoch: 278.3553°
orbit number at epoch: 19113

The dashed part of the orbit path shows where the satellite is in the earth's shadow,  

DLR